Home   Weather   Ashkelon   Past weeks

Flag for Israel Past Weather in Ashkelon, Israel — Yesterday and Last 2 Weeks

Now
54 °F

Sunny.


Feels Like: 54 °F
Forecast: 56 / 68 °F
Wind: 1 mph from North

Location: Ben Gurion International Airport

Current Time: Jan 17, 2017 at 8:55:24 am

Latest Report: Jan 17, 2017 at 8:20 am


Visibility: 10 mi

Pressure: 30.04 "Hg

Humidity: 72%

Dew Point: 45 °F

Location of AshkelonLocation

Past Weather in Ashkelon — Graph

°F

Ashkelon Temperature Yesterday

Maximum temperature yesterday: 68 °F (at 12:50 pm)
Minimum temperature yesterday: 45 °F (at 2:20 am)
Average temperature yesterday: 55 °F

High & Low Weather Summary for the Past Weeks

 TemperatureHumidityPressure
High72 °F (Jan 6, 1:20 pm)100% (Jan 14, 11:20 pm)30.30 "Hg (Jan 14, 11:20 pm)
Low41 °F (Jan 11, 5:50 am)23% (Jan 6, 1:50 pm)29.86 "Hg (Jan 14, 11:20 pm)
Average55 °F66%30.10 "Hg
* Reported Jan 2 7:20 am — Jan 17 7:20 am, Ashkelon, Weather by CustomWeather, © 2017

Note: Actual official high and low records may vary slightly from our data, if they occured in-between our weather recording intervals... More about our weather records

Advertising

Ashkelon Weather History for the Previous 24 Hours

Scroll right to see more
 ConditionsComfort  
Time TempWeatherWind HumidityBarometerVisibility
7:20 am
Tue, Jan 17
50 °FSunny.2 mph76%30.04 "Hg10 mi
6:50 am48 °FSunny.1 mph82%30.04 "Hg10 mi
6:20 am48 °FClear.1 mph82%30.01 "Hg10 mi
5:50 am50 °FClear.5 mph76%30.04 "Hg10 mi
5:20 am50 °FClear.3 mph82%30.01 "Hg10 mi
4:50 am50 °FClear.3 mph76%30.04 "Hg10 mi
4:20 am50 °FClear.2 mph82%30.04 "Hg10 mi
3:50 am50 °FClear.2 mph82%30.04 "Hg10 mi
3:20 am52 °FClear.2 mph77%30.04 "Hg10 mi
2:50 am52 °FClear.3 mph72%30.04 "Hg10 mi
2:20 am50 °FClear.3 mph82%30.04 "Hg10 mi
1:50 am50 °FClear.5 mph82%30.04 "Hg10 mi
1:20 am50 °FClear.1 mph82%30.04 "Hg10 mi
12:50 am50 °FClear.2 mph82%30.04 "Hg10 mi
12:20 am50 °FClear.5 mph82%30.04 "Hg10 mi
11:50 pm
Mon, Jan 16
50 °FClear.2 mph88%30.04 "Hg10 mi
11:20 pm52 °FClear.1 mph77%30.07 "Hg10 mi
10:50 pm52 °FClear.2 mph77%30.07 "Hg10 mi
10:20 pm52 °FClear.1 mph82%30.07 "Hg10 mi
9:50 pm54 °FClear.2 mph72%30.07 "Hg10 mi
9:20 pm54 °FClear.3 mph77%30.07 "Hg10 mi
8:50 pm55 °FClear.3 mph67%30.07 "Hg10 mi
8:20 pm55 °FClear.2 mph72%30.07 "Hg10 mi
7:50 pm57 °FClear.2 mph63%30.07 "Hg10 mi
7:20 pm57 °FClear.5 mph63%30.07 "Hg10 mi
6:50 pm59 °FClear.1 mph63%30.07 "Hg10 mi
6:20 pm59 °FClear.1 mph59%30.07 "Hg10 mi
5:50 pm61 °FClear.1 mph59%30.04 "Hg10 mi
5:20 pm63 °FClear.2 mph56%30.04 "Hg10 mi
4:50 pm64 °FSunny.2 mph52%30.04 "Hg10 mi
4:20 pm66 °FSunny.5 mph49%30.04 "Hg10 mi
3:50 pm66 °FSunny.7 mph49%30.07 "Hg10 mi
3:20 pm66 °FSunny.7 mph52%30.07 "Hg10 mi
2:50 pm68 °FSunny.2 mph38%30.07 "Hg10 mi
2:20 pm68 °FSunny.2 mph35%30.07 "Hg10 mi
1:50 pm68 °FSunny.5 mph38%30.07 "Hg10 mi
1:20 pm68 °FSunny.5 mph38%30.07 "Hg10 mi
12:50 pm68 °FSunny.7 mph33%30.07 "Hg10 mi
12:20 pm66 °FSunny.5 mph37%30.07 "Hg10 mi
11:50 am64 °FSunny.6 mph40%30.09 "Hg10 mi
11:20 am64 °FSunny.3 mph46%30.09 "Hg10 mi
10:50 am63 °FSunny.2 mph52%30.12 "Hg10 mi
10:20 am63 °FSunny.1 mph49%30.15 "Hg10 mi
9:50 am59 °FSunny.2 mph59%30.15 "Hg10 mi
9:20 am55 °FSunny.1 mph67%30.15 "Hg10 mi
8:50 am54 °FSunny.1 mph72%30.15 "Hg10 mi
8:20 am50 °FSunny.2 mph82%30.12 "Hg10 mi
Weather by CustomWeather, © 2017

See weather overviewHow to use our weather pages